TimeMST,TemperatureF,Dew PointF,Humidity,Sea Level PressureIn,VisibilityMPH,Wind Direction,Wind SpeedMPH,Gust SpeedMPH,PrecipitationIn,Events,Conditions,WindDirDegrees,DateUTC
12:53 AM,8.1,-2.0,64,30.27,10.0,North,4.6,-,N/A,,Clear,350,2013-12-05 07:53:00
1:53 AM,6.1,-2.9,67,30.29,10.0,NE,3.5,-,N/A,,Clear,40,2013-12-05 08:53:00
2:53 AM,7.0,-4.0,61,30.28,10.0,North,8.1,-,N/A,,Clear,10,2013-12-05 09:53:00
3:53 AM,6.1,-5.1,60,30.30,10.0,North,5.8,-,N/A,,Clear,360,2013-12-05 10:53:00
4:53 AM,6.1,-6.0,58,30.30,10.0,NNW,6.9,-,N/A,,Clear,340,2013-12-05 11:53:00
5:53 AM,7.0,-7.1,53,30.32,10.0,North,6.9,-,N/A,,Scattered Clouds,350,2013-12-05 12:53:00
6:53 AM,7.0,-7.1,53,30.34,10.0,North,5.8,-,N/A,,Clear,350,2013-12-05 13:53:00
7:53 AM,8.1,-8.0,48,30.35,10.0,NE,4.6,-,N/A,,Overcast,40,2013-12-05 14:53:00
8:53 AM,8.1,-8.0,48,30.36,10.0,ENE,6.9,-,N/A,,Overcast,60,2013-12-05 15:53:00
9:53 AM,10.0,-8.0,44,30.35,10.0,East,4.6,-,N/A,,Overcast,80,2013-12-05 16:53:00
10:53 AM,10.9,-8.0,42,30.32,10.0,ENE,6.9,-,N/A,,Overcast,70,2013-12-05 17:53:00
11:53 AM,12.0,-8.0,41,30.27,10.0,NE,8.1,-,N/A,,Overcast,40,2013-12-05 18:53:00
12:53 PM,12.9,-8.0,39,30.24,10.0,Variable,6.9,-,N/A,,Overcast,0,2013-12-05 19:53:00
1:53 PM,12.0,-8.0,41,30.24,10.0,East,6.9,-,N/A,,Overcast,80,2013-12-05 20:53:00
2:53 PM,12.9,-7.1,41,30.23,10.0,East,8.1,-,N/A,,Overcast,100,2013-12-05 21:53:00
3:53 PM,12.9,-7.1,41,30.25,10.0,ESE,8.1,-,N/A,,Overcast,110,2013-12-05 22:53:00
4:53 PM,12.0,-7.1,42,30.25,10.0,East,9.2,-,N/A,,Mostly Cloudy,90,2013-12-05 23:53:00
5:53 PM,12.9,-6.0,43,30.27,10.0,East,8.1,-,N/A,,Overcast,80,2013-12-06 00:53:00
6:53 PM,12.0,-4.0,49,30.29,10.0,East,8.1,-,N/A,,Overcast,100,2013-12-06 01:53:00
7:53 PM,12.0,-5.1,46,30.30,10.0,East,8.1,-,N/A,,Overcast,90,2013-12-06 02:53:00
8:53 PM,12.0,-4.0,49,30.31,10.0,East,6.9,-,N/A,,Overcast,100,2013-12-06 03:53:00
9:53 PM,12.0,-4.0,49,30.32,10.0,ESE,8.1,-,N/A,,Overcast,110,2013-12-06 04:53:00
10:53 PM,12.0,-4.0,49,30.32,10.0,East,8.1,-,N/A,,Overcast,90,2013-12-06 05:53:00
11:53 PM,12.0,-4.0,49,30.32,10.0,East,9.2,-,N/A,,Overcast,100,2013-12-06 06:53:00